Theta_e
318 327 322 317 319 317 315 314 314 315 313 311 313 314 313 314 313 313 312 309 311 316 316 321 332 336 335 333 333 333 332 332 332 333 334 333 333 333 332 330 329 331 330 329 329 330 331 332 333 334 333 334 334 333 334 334 335 335 334 334 334 334 335 335 335 336 335 335 335 335 335 335 334 332 333 336 331 322 318 321 332 337 335 336 335 336
322 326 320 315 316 314 312 312 312 311 311 312 313 314 314 314 313 312 310 308 310 314 318 325 333 332 331 331 331 332 332 331 331 331 332 332 332 332 331 330 330 329 327 327 327 327 329 329 330 331 330 331 332 331 332 332 332 333 334 334 334 333 333 333 334 334 334 335 335 335 335 334 333 330 330 334 336 333 326 322 330 336 336 336 335 336
326 322 318 315 312 311 312 312 314 314 315 315 314 317 318 315 315 314 312 311 311 316 322 326 330 327 326 328 329 329 330 330 330 331 331 330 330 331 331 330 329 329 328 328 327 326 328 328 327 328 327 328 329 329 330 330 330 330 331 332 332 332 332 332 333 333 334 334 334 334 335 334 333 331 330 332 334 335 332 327 329 334 335 335 335 335
325 320 317 314 313 317 317 314 317 319 317 317 316 318 318 314 315 316 314 315 316 318 322 325 327 325 325 328 328 327 328 329 330 331 330 328 328 329 328 327 328 329 329 330 328 326 326 327 327 326 326 327 328 328 329 330 330 330 330 331 331 331 331 331 331 332 332 333 334 334 334 334 334 333 332 332 333 334 334 332 331 332 334 334 335 335
321 317 315 316 316 321 320 317 321 321 319 320 318 316 316 315 315 314 314 317 319 320 321 326 330 328 328 329 328 329 329 329 329 330 329 328 327 327 326 326 327 328 329 330 330 327 325 327 328 328 328 328 328 329 329 329 328 329 329 330 330 330 330 331 331 332 332 332 333 333 334 334 334 334 334 333 333 333 333 333 331 332 333 333 334 335
320 316 315 320 321 321 321 320 318 319 322 323 318 314 315 315 314 313 314 318 323 324 321 325 333 333 332 329 329 331 330 328 329 329 330 330 327 327 327 327 327 327 327 328 328 326 325 326 327 328 328 328 329 329 329 329 329 329 329 329 330 330 331 331 331 332 332 332 332 333 333 333 333 334 334 334 334 333 333 332 329 329 332 333 334 335
318 318 317 321 324 323 324 321 315 319 327 324 317 315 314 315 315 313 315 319 324 326 318 318 329 334 331 328 329 330 328 328 329 329 331 331 327 327 327 327 327 327 327 326 326 325 323 324 325 326 327 327 327 328 329 330 330 329 330 330 330 330 330 331 332 332 332 332 332 333 333 333 334 333 334 334 334 333 333 332 329 327 331 334 334 335
319 321 322 323 328 328 325 321 317 322 328 321 316 316 314 316 316 314 315 318 320 319 316 318 327 333 332 329 330 328 325 327 328 328 331 329 327 327 327 326 326 327 327 327 329 326 322 323 324 324 326 326 326 327 328 329 330 330 330 330 331 331 330 331 331 331 332 332 332 332 333 333 333 334 333 334 333 333 333 333 332 331 332 334 335 336
319 321 321 322 327 327 323 321 318 318 321 320 317 315 314 315 318 320 320 321 321 317 317 323 325 329 335 331 326 325 326 329 328 327 329 329 327 327 327 326 326 326 326 327 328 326 321 321 322 323 325 326 326 326 327 328 330 331 331 331 331 331 331 331 331 332 332 332 332 333 333 333 333 333 333 333 333 333 333 333 333 332 332 333 334 336
318 318 318 318 321 323 324 325 321 317 317 318 314 315 317 317 320 325 323 324 325 320 319 323 319 320 331 331 324 324 327 328 328 327 326 326 326 327 327 326 327 326 326 326 324 321 320 321 321 323 324 324 325 325 326 327 329 330 331 331 331 331 331 331 330 331 331 332 333 333 333 333 333 333 333 333 333 332 332 333 333 332 332 332 333 335
320 320 319 319 320 320 322 322 318 315 315 314 314 318 323 322 325 330 329 325 322 321 324 324 318 314 321 328 325 324 328 327 326 326 325 324 324 326 327 326 326 326 326 326 324 320 319 321 321 322 323 323 324 325 325 326 327 329 329 329 330 330 331 331 331 330 331 332 333 333 333 333 333 333 333 333 333 332 332 332 332 332 331 332 332 333
322 320 320 320 321 319 317 316 316 315 314 314 320 324 322 324 327 329 329 323 318 324 328 324 319 314 317 328 326 323 327 328 326 326 325 324 323 325 326 325 325 326 326 326 326 323 319 320 321 321 322 322 323 323 324 325 326 327 327 328 328 329 329 331 331 331 331 332 332 332 332 332 333 333 333 333 333 332 332 331 332 331 331 332 332 333
323 319 320 319 320 318 316 319 321 321 321 319 324 328 324 324 324 324 327 323 321 325 322 319 318 313 318 329 328 323 324 326 324 324 325 322 322 325 325 325 325 325 326 325 327 327 321 318 320 320 320 321 321 321 323 324 325 326 326 327 327 327 328 329 330 331 331 332 332 332 333 332 332 333 333 333 333 332 332 331 331 331 331 331 332 332
327 324 325 321 320 317 316 323 325 324 324 321 323 326 324 324 323 325 326 319 320 322 317 317 317 315 322 325 322 321 321 321 322 323 325 323 322 326 324 325 325 324 326 325 326 329 323 317 319 319 320 320 320 320 322 323 324 325 326 326 326 327 328 328 329 329 330 330 331 331 332 332 331 332 332 331 332 332 332 331 331 331 331 331 331 332
327 324 324 321 320 318 317 323 325 324 324 320 320 322 323 328 328 326 326 323 324 324 319 316 316 321 328 322 318 320 320 322 323 322 325 323 322 324 324 324 325 324 325 325 326 326 319 316 319 319 319 320 320 320 321 323 323 324 325 325 325 326 327 327 328 328 329 329 330 330 330 331 331 330 330 330 330 331 331 332 330 330 330 330 330 331
322 321 324 321 318 318 318 319 319 321 322 317 315 317 319 327 330 323 320 323 325 324 321 318 318 324 327 322 321 322 322 323 323 321 323 323 322 322 323 324 324 325 325 324 326 326 318 316 318 318 318 319 319 319 320 322 322 323 324 323 324 325 325 326 326 327 327 328 328 329 329 330 330 329 329 329 329 330 330 331 331 330 330 330 330 330
322 323 325 322 318 317 317 318 317 317 322 320 317 319 318 318 326 324 317 317 318 321 323 320 321 327 325 322 323 324 324 322 320 321 322 322 322 322 323 324 323 324 325 324 326 324 317 316 317 317 318 319 319 319 319 320 321 322 322 320 321 324 324 324 325 325 325 326 327 328 329 329 329 329 329 329 329 329 329 330 330 331 330 330 330 330
323 327 327 322 319 318 317 318 318 316 319 322 321 321 317 314 322 325 322 322 320 322 325 322 323 328 326 325 327 325 325 324 321 321 321 320 321 321 322 323 322 323 323 323 324 319 314 315 317 317 317 318 319 319 318 319 319 321 321 319 318 322 324 324 324 324 325 325 325 326 327 328 328 328 329 329 329 329 328 329 329 330 330 330 330 330
319 327 330 323 320 322 320 319 321 320 317 318 322 320 317 320 326 324 322 326 324 322 326 324 321 323 324 329 334 329 327 327 323 320 321 320 321 321 321 322 321 321 321 322 324 322 315 314 316 316 316 317 319 318 318 318 319 320 321 320 318 319 322 323 323 324 324 324 325 325 326 327 328 328 328 328 329 328 328 329 329 329 329 330 331 331
320 323 327 324 319 319 323 322 324 327 319 316 322 321 319 326 330 324 320 322 323 322 325 324 321 324 326 327 333 333 327 325 323 321 321 320 319 319 320 321 320 320 321 322 325 324 315 312 314 314 314 316 317 318 318 318 318 319 320 319 318 318 321 323 323 323 323 323 324 324 325 326 327 327 327 327 328 328 328 328 329 329 329 329 330 332
321 319 323 329 323 317 324 326 324 330 327 322 325 322 321 322 320 319 319 318 321 324 324 323 323 329 328 323 327 329 324 321 321 321 320 318 318 318 318 319 319 320 321 321 325 323 314 311 314 314 314 317 317 316 317 317 318 318 318 318 317 318 320 322 323 322 322 322 322 323 325 327 327 327 327 327 328 328 328 328 329 329 329 329 330 331
322 320 322 330 326 321 329 326 320 325 327 328 329 325 326 325 321 322 321 317 319 321 321 321 321 327 326 321 321 322 321 320 319 319 320 318 318 318 318 318 318 319 320 322 325 320 312 312 313 313 315 317 316 316 317 317 318 317 316 316 316 317 319 321 322 321 321 322 321 322 325 327 327 328 328 328 328 328 328 328 328 328 329 329 330 330
325 324 322 325 326 324 324 319 316 320 321 323 324 321 323 327 325 327 326 322 321 319 318 318 320 327 328 320 320 321 320 320 319 319 320 319 318 318 318 318 317 319 320 323 323 316 311 313 313 313 315 315 315 316 316 317 317 316 315 315 315 317 318 320 321 320 320 321 321 321 323 325 326 326 327 327 327 327 327 328 328 328 329 329 329 329
323 323 321 324 331 328 321 317 317 319 318 319 320 318 321 325 324 327 327 325 323 322 321 319 320 329 330 321 321 323 320 319 319 320 320 319 318 318 317 318 318 319 321 322 320 313 311 312 312 314 315 314 315 316 316 317 316 314 314 314 315 317 318 320 320 319 319 320 320 321 322 323 324 323 323 324 325 325 326 327 327 328 328 329 329 329
319 322 322 323 327 328 325 326 325 322 320 321 323 320 322 324 323 322 321 320 320 322 323 322 323 328 327 323 324 325 323 322 320 319 319 319 318 317 317 317 318 319 320 321 320 317 313 311 311 312 313 314 315 315 315 316 314 313 313 313 314 317 318 319 319 318 319 319 319 320 321 321 322 321 320 321 322 323 324 325 326 327 328 328 328 329
316 321 323 323 322 322 325 330 330 327 324 321 322 321 322 323 322 321 321 320 321 322 321 322 325 325 324 324 326 325 326 327 323 318 317 318 317 317 316 317 318 319 320 321 322 321 316 312 311 311 311 313 314 314 315 314 313 312 312 312 314 316 317 317 317 318 318 319 319 319 320 320 320 320 320 319 320 322 323 324 324 325 326 326 327 329
322 320 323 325 324 322 325 330 326 323 322 320 321 322 323 322 321 323 325 324 324 323 321 322 323 321 321 322 323 326 327 327 325 320 318 317 316 316 316 316 317 318 319 320 321 322 320 315 311 310 311 313 314 315 314 313 312 311 312 312 312 315 316 316 317 317 317 318 318 318 319 319 319 319 319 318 319 320 322 321 322 323 323 323 324 326
323 320 322 324 323 323 324 327 323 318 320 322 323 322 324 323 321 321 323 324 324 323 323 325 324 321 321 321 322 326 327 327 326 322 318 317 316 315 315 315 316 317 317 319 321 322 322 320 313 310 311 312 313 314 313 312 311 311 311 311 311 313 315 315 316 316 316 317 318 318 317 317 317 317 317 317 318 318 319 319 320 320 321 321 321 322
326 322 322 320 323 326 324 323 321 319 321 323 323 322 323 324 323 321 321 321 321 321 322 325 325 323 321 321 323 324 325 326 326 321 317 316 315 315 315 315 317 318 318 319 320 321 324 322 314 310 310 311 312 313 312 311 311 310 310 310 310 312 312 313 314 315 315 317 317 317 317 316 316 316 315 316 316 316 317 318 318 319 319 320 319 319
324 322 322 319 321 327 326 323 321 320 322 322 322 323 322 323 324 322 321 320 319 320 321 321 321 320 318 317 318 318 320 322 321 318 316 316 316 316 316 317 318 318 318 318 319 320 323 319 310 309 311 311 312 313 312 311 310 310 310 310 310 311 311 312 313 314 315 316 316 316 316 316 315 315 315 315 314 314 315 315 316 316 316 318 318 318
317 321 324 321 321 327 327 325 322 321 323 324 324 324 321 320 321 320 319 318 318 320 319 317 319 320 316 315 317 317 318 320 320 319 318 317 316 316 316 316 317 318 317 317 317 320 322 317 308 308 311 311 311 313 311 311 310 309 309 309 309 310 310 311 313 314 315 315 315 315 315 314 315 314 314 314 313 313 313 313 314 314 314 315 316 317
318 320 323 321 324 328 325 323 325 324 321 322 324 325 322 321 322 321 319 319 320 321 319 317 319 320 317 319 323 323 320 320 321 321 318 316 315 315 316 316 316 317 317 317 317 319 323 319 310 308 310 311 311 312 311 310 310 309 309 309 309 310 310 311 313 313 314 314 314 314 314 313 313 313 312 312 311 311 311 311 312 312 312 313 314 315
323 325 326 323 324 326 322 321 324 323 321 323 327 328 326 324 323 322 320 319 319 318 319 320 320 319 321 325 327 327 325 323 322 320 317 316 315 314 315 315 315 316 316 316 317 319 321 317 311 309 311 311 311 312 311 310 310 309 309 308 309 310 310 311 312 313 313 313 313 312 312 312 311 311 310 310 309 309 309 309 309 310 311 312 313 314
324 325 326 322 322 327 325 320 319 318 321 327 330 330 326 323 324 325 324 323 319 317 320 322 319 320 325 327 327 329 330 326 321 317 315 315 316 315 315 314 314 315 314 314 317 317 314 311 311 311 312 311 311 312 311 310 309 308 308 308 309 309 309 310 311 312 312 312 311 311 311 310 310 310 309 309 308 308 307 307 308 309 310 311 312 313
324 323 323 320 321 326 325 321 319 321 325 326 324 323 321 318 319 322 323 323 318 316 320 321 318 320 322 323 324 324 324 321 318 317 316 316 316 315 315 315 313 313 314 314 316 315 310 310 312 312 311 312 312 311 311 310 308 308 308 308 308 308 308 309 310 311 311 311 310 310 310 310 309 309 308 307 307 307 307 307 307 308 309 310 311 311
325 323 323 320 320 322 322 320 321 323 324 323 318 315 315 315 316 316 321 327 325 320 318 319 318 317 317 321 321 319 318 319 320 321 319 318 317 316 315 316 314 314 314 313 313 311 310 311 312 312 312 312 311 311 310 309 308 307 307 308 308 308 308 308 309 310 310 310 310 309 309 309 308 308 307 306 306 307 307 307 307 307 308 309 309 310
323 323 323 320 318 321 322 322 322 321 321 323 322 316 314 318 321 319 319 327 333 326 319 321 322 318 318 321 319 317 321 322 324 326 324 319 317 317 316 314 313 313 312 310 311 310 311 313 313 313 313 312 311 311 310 308 308 308 307 307 307 308 308 308 308 309 310 309 309 309 309 308 308 307 306 306 306 307 307 307 307 307 307 308 308 309
319 321 324 321 317 318 321 322 323 323 323 326 327 322 318 320 323 322 318 320 330 329 321 321 322 320 321 323 319 319 323 323 326 329 327 321 317 316 316 312 310 311 311 310 310 311 311 312 312 312 313 311 310 310 309 308 309 307 307 307 307 307 308 308 308 308 309 309 309 309 308 308 306 306 306 306 306 306 307 306 306 307 307 307 308 308
318 320 321 321 319 319 320 322 324 324 323 327 329 327 323 319 319 322 322 323 331 332 323 322 322 320 322 323 320 321 323 325 330 329 323 322 319 316 316 314 309 309 311 311 311 311 311 311 311 312 312 310 309 309 309 309 308 307 307 307 306 307 307 307 307 308 308 309 309 309 308 307 306 306 306 306 306 306 307 306 306 307 307 307 308 308
318 320 320 320 321 321 320 323 324 321 321 327 327 325 323 318 318 323 324 325 336 337 326 323 323 320 320 321 320 321 325 327 329 324 319 321 320 313 313 314 311 308 309 310 311 311 312 312 311 310 309 309 309 309 309 308 307 307 307 306 306 306 306 306 306 306 308 309 309 308 307 306 306 306 306 306 306 306 306 306 306 307 307 307 308 308
319 320 319 319 321 320 319 320 321 320 324 327 324 322 322 319 317 322 325 327 334 336 329 326 324 320 320 321 320 323 325 323 322 322 320 321 321 314 310 311 310 309 310 311 311 311 310 310 310 310 309 309 309 309 308 308 307 307 307 306 306 306 306 306 306 306 308 309 308 307 307 306 306 306 306 306 306 306 306 306 306 307 307 307 308 309
321 320 319 318 319 319 319 321 321 322 324 323 318 317 318 318 319 324 326 325 326 329 329 326 322 319 321 322 321 322 322 317 316 320 321 321 323 318 311 308 308 308 309 310 310 310 309 309 309 309 309 309 309 308 308 308 307 307 307 306 306 306 306 305 305 306 308 309 308 307 307 306 306 307 307 306 306 306 305 306 306 307 307 308 309 310
321 321 322 321 320 319 319 320 321 324 323 319 316 315 314 318 329 333 326 321 322 326 329 327 321 318 319 321 321 320 319 315 315 319 321 321 322 317 310 307 306 306 308 308 308 308 308 308 308 308 309 309 308 308 308 308 307 307 307 307 307 307 306 305 305 306 308 308 307 307 307 307 306 307 307 307 306 306 305 305 306 307 308 309 310 310
318 320 324 324 321 321 322 322 323 327 326 320 319 322 318 318 328 331 323 320 322 324 326 326 323 318 316 321 324 320 316 316 317 320 321 321 319 315 310 307 305 306 308 308 308 308 307 307 308 308 308 308 308 308 308 307 307 307 307 307 307 306 305 305 305 306 308 307 307 307 308 307 306 307 307 307 307 306 305 305 305 306 307 309 310 309
320 321 326 327 324 323 324 324 322 325 327 320 319 325 322 316 319 322 321 321 324 323 321 322 324 322 317 318 320 319 317 317 318 320 321 320 318 315 311 307 306 306 307 307 308 308 308 308 308 307 307 308 308 308 307 307 307 307 307 307 307 306 305 304 305 306 307 306 307 307 307 307 307 306 307 306 307 307 306 305 305 305 306 308 309 309
321 319 320 323 323 320 320 321 317 317 322 321 318 319 318 315 318 321 319 319 323 326 322 320 324 328 322 316 317 321 322 319 319 320 318 317 317 313 307 305 305 306 307 307 307 308 307 307 307 307 307 307 307 307 307 307 307 307 307 307 307 306 305 303 304 305 304 304 305 306 307 307 307 307 307 306 307 307 306 305 304 304 305 306 307 308
319 317 317 319 321 320 323 328 323 317 319 322 320 319 319 317 317 318 318 317 319 323 323 319 320 325 322 317 319 324 324 319 318 320 316 313 315 312 306 304 305 305 306 307 308 308 307 306 306 306 306 307 307 307 306 307 307 307 307 307 307 306 304 303 304 304 303 303 305 306 307 307 307 307 307 307 306 307 307 306 304 303 304 305 305 305
317 314 317 320 320 321 326 330 326 320 319 319 317 318 321 319 317 316 316 316 315 318 319 317 316 319 322 320 319 321 322 319 318 319 317 313 313 311 305 303 304 305 306 307 308 308 307 306 306 307 306 307 308 307 306 307 307 307 307 307 307 305 304 303 304 304 302 303 305 306 307 306 306 306 307 306 306 306 306 305 303 301 301 303 304 304
315 313 318 319 319 320 322 323 322 323 325 326 323 322 322 322 321 318 317 317 317 317 317 316 315 316 320 321 319 318 320 320 317 316 315 313 311 309 305 303 304 304 305 306 307 307 307 307 306 306 307 307 308 307 307 307 307 307 307 307 306 305 303 303 304 303 302 303 305 306 306 305 305 305 306 306 306 305 304 304 302 300 299 301 302 302
314 318 320 317 318 321 323 324 323 320 324 328 326 322 321 321 320 320 320 320 319 317 318 319 317 313 312 312 313 315 321 322 315 312 313 312 309 306 304 303 303 304 304 306 306 306 307 307 306 307 307 307 307 308 307 307 307 307 307 307 306 305 303 303 304 303 302 303 305 306 306 305 304 304 305 305 306 305 305 303 302 301 300 300 300 299
319 323 322 320 322 323 323 326 324 319 321 325 324 322 321 318 318 320 321 320 318 316 315 318 319 318 316 312 307 310 319 321 311 308 312 311 306 304 304 304 304 304 304 305 305 305 305 306 306 307 307 307 307 307 307 307 307 307 307 307 306 305 303 302 303 304 302 302 304 306 306 305 304 304 305 305 305 305 305 303 302 302 301 300 300 300
Wind_Speed
4 5 3 1 3 3 3 4 4 4 4 4 4 3 4 4 3 4 4 6 3 5 3 4 8 7 6 4 4 4 4 4 3 1 2 3 4 5 6 6 6 6 4 4 7 9 8 6 3 2 2 3 3 2 3 5 6 8 10 12 13 15 17 20 22 23 23 24 23 22 23 22 20 19 20 20 21 22 21 22 23 21 19 18 18 18
5 5 3 5 6 5 4 5 3 3 3 3 4 2 2 3 2 4 2 4 1 4 4 6 10 6 4 4 4 4 4 2 2 2 2 0 3 5 6 7 6 4 2 3 6 7 8 6 3 2 2 3 3 2 1 1 3 5 7 10 12 14 15 17 19 21 22 23 23 23 24 25 23 22 22 22 21 21 22 24 25 23 21 19 19 18
6 4 7 7 4 3 2 1 5 5 4 4 2 3 1 2 2 4 5 5 3 4 3 7 10 5 4 4 4 5 3 1 2 2 3 3 0 3 7 6 5 4 2 2 3 5 7 7 5 4 5 4 3 3 3 4 3 3 4 6 8 10 13 16 17 18 20 21 21 20 20 21 23 23 24 23 21 20 21 22 24 24 23 21 19 19
3 4 7 6 1 6 7 5 6 6 4 4 4 4 1 4 2 2 5 7 6 5 6 8 8 4 4 5 4 4 2 1 3 3 3 3 0 2 3 3 3 4 3 2 3 4 6 7 8 7 6 5 4 4 4 4 4 5 5 5 5 6 8 11 14 16 18 19 20 20 19 18 18 20 22 22 22 22 21 20 20 23 24 23 21 20
2 5 5 5 6 7 7 6 6 6 4 3 2 4 1 3 2 2 1 4 9 7 7 10 7 3 3 3 1 4 3 2 3 2 1 2 1 0 0 0 1 1 2 2 1 2 5 7 7 7 6 6 6 5 4 4 3 4 5 5 5 6 7 8 9 11 14 16 17 19 19 18 16 17 18 20 22 23 23 22 20 21 22 24 24 22
1 4 3 6 7 7 7 5 3 4 3 4 1 1 1 1 2 3 3 4 7 3 1 5 5 2 4 2 4 4 2 1 1 1 3 3 1 1 0 1 1 2 2 1 1 1 3 5 5 5 5 5 6 5 5 4 4 4 5 5 5 6 7 8 8 7 9 11 14 16 18 18 17 17 18 20 22 24 25 26 25 24 23 23 25 24
0 3 5 6 6 7 7 4 0 3 6 2 2 2 2 3 4 4 5 4 4 2 2 3 4 2 4 4 5 2 2 4 4 2 5 4 2 2 2 1 1 1 2 3 2 0 1 2 3 3 4 5 6 6 6 5 4 4 5 5 5 5 6 8 8 7 7 8 11 13 16 18 19 19 19 20 22 23 25 26 28 28 26 24 25 25
1 4 7 6 6 6 5 2 1 4 7 0 3 1 2 5 5 2 4 4 2 3 0 3 4 3 2 5 5 3 2 6 5 5 6 5 3 3 2 2 2 3 3 3 3 1 1 1 3 3 4 5 6 7 7 6 6 4 5 5 5 6 7 7 7 8 8 8 10 12 14 17 19 20 20 19 20 21 23 25 27 29 27 24 24 25
1 2 3 4 5 4 1 3 4 5 4 3 3 3 2 4 6 4 5 3 2 3 1 4 4 3 3 5 2 3 4 7 8 9 8 6 5 3 3 4 3 3 4 5 4 2 1 1 2 2 3 5 6 8 8 8 7 6 6 6 5 6 6 6 6 8 9 10 10 12 14 16 17 19 21 20 19 21 22 23 25 27 26 25 25 26
1 2 2 4 3 1 4 5 4 5 1 3 4 5 4 5 5 4 5 3 4 3 4 5 2 2 4 4 1 2 4 9 10 8 7 6 5 5 4 5 4 4 4 5 4 2 1 0 2 3 4 5 6 7 8 8 8 8 8 8 7 6 6 6 6 7 9 10 10 11 13 15 16 18 20 20 19 19 20 21 23 24 26 27 26 27
3 2 2 3 3 4 4 3 2 2 1 2 4 5 5 5 5 4 3 4 2 1 5 5 4 4 4 4 5 5 5 9 10 7 6 6 6 6 5 5 5 4 5 5 3 2 2 1 2 3 4 5 6 6 7 8 8 8 9 9 9 7 6 6 6 6 7 9 10 11 12 14 16 17 19 20 19 18 19 22 23 22 23 26 28 28
6 3 1 1 2 2 2 1 1 3 2 3 4 4 3 4 4 3 4 3 3 3 6 4 3 5 4 5 6 8 6 6 10 10 10 10 8 7 6 5 6 5 5 4 3 3 3 1 2 3 4 6 7 7 7 7 7 7 9 9 9 9 7 6 6 5 6 8 10 11 12 13 15 17 19 20 20 20 21 24 26 24 21 22 25 27
4 1 3 4 2 1 3 2 3 5 5 4 4 4 3 2 2 1 3 1 2 5 4 1 2 2 6 6 6 11 10 7 8 9 10 10 9 8 7 6 6 5 4 4 3 4 4 2 2 3 4 6 8 8 7 7 7 7 8 10 10 10 10 8 6 5 6 8 9 10 12 13 14 16 19 20 21 22 22 24 27 27 26 23 22 24
3 4 6 4 3 1 4 3 1 2 3 3 4 4 3 2 2 1 3 1 2 4 2 2 1 2 4 4 4 9 10 7 6 5 6 9 9 9 8 7 5 5 4 4 4 3 4 4 3 3 3 5 7 8 7 7 8 7 6 8 9 10 10 10 8 4 4 6 7 9 10 12 12 13 15 18 20 21 22 25 27 30 32 30 25 23
1 3 4 1 2 2 1 3 5 3 2 1 3 5 4 4 4 3 3 2 2 3 2 3 2 2 2 3 4 6 6 3 5 4 5 7 7 7 6 5 5 5 4 4 4 3 5 6 5 4 4 4 6 7 6 6 8 7 6 7 8 10 10 10 10 8 6 5 5 7 9 11 12 13 14 16 18 21 23 25 27 31 34 35 33 27
2 3 5 4 3 1 2 1 4 5 3 1 1 4 2 3 4 2 2 4 2 1 2 2 2 3 3 4 4 1 2 2 3 4 5 7 6 6 6 5 5 5 4 4 3 4 6 7 5 4 5 5 5 6 6 5 7 7 7 7 7 8 9 9 9 8 7 5 5 5 8 10 12 13 14 16 18 21 24 24 26 29 33 36 37 34
2 3 6 4 2 1 1 2 2 3 1 1 1 1 2 3 6 4 1 0 3 1 3 1 2 4 3 4 5 3 4 3 2 4 6 7 7 6 6 6 5 5 5 4 4 5 7 7 5 5 5 6 5 5 4 4 5 6 7 8 7 6 7 8 9 8 7 6 6 5 6 8 11 13 14 17 18 20 22 23 24 26 30 33 34 35
3 2 5 2 0 2 2 1 3 2 2 2 1 3 2 2 4 4 1 2 3 2 3 1 3 4 2 2 5 4 1 3 3 4 5 6 6 7 7 6 6 6 5 5 5 5 7 7 6 6 6 7 6 5 3 3 4 4 5 7 8 6 6 7 9 8 9 9 8 7 6 6 9 12 14 16 16 18 20 21 22 23 26 29 30 31
4 1 6 2 1 5 4 3 3 5 3 2 3 3 2 2 1 1 1 0 0 2 3 3 3 3 3 4 3 2 6 7 5 5 5 7 8 8 7 7 6 5 4 5 5 5 6 6 6 7 7 8 7 4 1 2 4 4 3 4 7 7 4 5 7 7 8 8 8 7 6 7 9 12 14 14 15 17 19 19 20 23 25 27 29 29
3 2 4 4 2 3 5 3 1 4 4 4 3 2 2 2 3 1 2 2 2 2 2 3 4 3 5 5 5 8 11 9 7 7 8 9 9 8 7 7 6 6 5 5 5 5 5 5 6 6 7 7 7 5 3 3 3 3 3 3 5 7 4 4 5 6 7 8 8 8 9 8 8 8 10 11 13 15 17 16 17 20 24 26 27 27
2 3 2 5 4 2 2 1 3 3 1 2 2 1 1 2 2 1 1 2 3 2 2 1 3 5 5 4 6 10 10 9 10 10 9 9 9 8 7 7 7 6 6 6 5 5 5 5 5 5 5 5 5 4 4 3 3 2 1 3 4 5 5 4 4 4 5 7 8 11 13 12 10 8 6 7 10 13 15 15 15 17 21 24 24 25
1 2 2 2 3 2 4 4 3 5 4 4 3 3 3 3 3 2 1 1 1 2 3 3 3 7 5 3 5 7 6 7 9 10 8 7 8 8 7 7 7 7 7 6 5 4 4 4 5 5 2 2 2 2 3 3 3 1 1 3 4 4 3 3 3 4 4 5 7 11 13 13 10 7 4 3 5 8 10 12 13 14 16 19 20 22
3 3 2 2 3 4 6 4 1 3 4 4 2 2 3 3 4 4 2 3 1 0 1 3 2 6 5 3 4 6 5 6 7 7 7 6 7 7 7 7 6 6 6 5 4 4 4 3 4 3 2 3 3 4 4 4 3 1 3 4 4 4 2 1 2 4 4 3 5 8 11 12 11 9 6 5 3 2 4 7 9 10 12 15 18 20
1 3 2 2 4 4 5 4 3 2 3 3 0 1 4 2 2 4 4 3 2 2 2 1 3 6 5 3 3 4 4 3 5 6 7 6 5 6 7 7 6 6 6 5 4 3 3 2 1 1 4 6 6 5 5 5 3 1 3 4 4 4 1 2 2 4 4 2 3 6 8 10 11 11 11 10 7 6 3 2 5 8 9 12 14 16
1 0 2 1 4 5 6 5 5 5 1 2 2 1 2 3 5 3 2 2 1 3 4 3 4 5 4 4 3 2 2 2 4 5 6 7 6 6 6 6 6 6 5 5 4 3 3 1 2 2 4 7 9 8 7 5 3 2 3 3 3 2 0 2 3 4 3 2 3 6 8 9 9 11 13 13 11 10 8 6 5 6 8 11 13 14
2 2 3 3 1 2 2 2 3 2 1 1 1 2 3 4 6 3 2 3 2 3 4 4 5 6 5 5 4 3 2 3 5 5 5 6 6 7 7 6 6 6 6 6 5 3 3 1 1 1 2 6 9 9 9 6 4 3 3 3 3 1 1 3 3 4 4 3 3 6 9 9 9 10 12 13 13 12 10 8 8 8 9 11 13 15
3 1 2 5 5 6 6 6 5 3 1 2 3 3 3 4 5 4 3 3 4 3 3 5 6 6 9 8 6 5 4 5 6 5 6 6 6 7 7 6 6 6 5 5 4 3 3 3 3 3 2 4 7 9 9 8 5 3 3 3 2 1 2 3 3 4 5 4 4 6 8 9 10 10 11 12 13 13 12 10 9 9 10 11 13 15
4 1 2 5 6 7 8 7 4 3 3 5 5 4 4 5 5 5 4 5 4 3 4 7 5 5 9 8 7 8 6 6 7 7 8 7 7 6 5 5 6 5 5 5 4 4 4 4 4 4 2 4 7 9 9 8 6 4 3 2 2 2 3 3 2 4 5 6 6 7 8 10 11 12 13 13 13 13 13 12 12 12 11 12 14 15
5 2 3 4 5 6 6 6 4 4 4 5 6 7 6 6 7 8 8 6 6 5 8 6 6 7 9 7 8 8 7 7 8 8 6 5 5 6 6 6 7 7 6 6 6 6 5 5 5 5 3 4 8 10 10 9 7 5 4 3 3 4 5 4 3 4 6 7 8 9 10 11 13 14 14 14 14 14 13 12 11 11 12 13 15 17
3 2 3 3 3 6 5 5 4 5 3 3 5 8 7 7 9 10 8 7 7 8 10 6 5 9 10 9 10 9 6 6 5 4 5 6 7 8 8 9 8 8 7 8 7 6 5 6 6 6 5 5 9 13 12 10 8 5 4 4 4 6 6 5 5 7 8 8 9 10 10 11 11 11 12 12 13 13 12 10 8 8 10 11 12 14
1 2 1 2 2 6 5 3 1 3 4 5 7 7 6 5 6 7 6 4 5 8 10 6 5 10 9 7 8 8 4 4 4 6 7 8 9 10 9 9 9 9 8 8 7 6 5 6 6 6 6 7 11 15 14 12 9 7 5 5 7 8 7 7 8 10 10 10 11 11 11 10 10 9 9 10 10 10 10 8 6 6 9 9 9 10
2 1 1 4 1 5 4 5 4 2 0 4 8 8 7 6 5 5 4 5 7 7 7 3 4 9 7 3 4 5 3 5 7 8 8 7 8 10 11 11 10 10 9 8 7 6 5 5 6 8 10 9 12 16 16 13 11 9 8 9 10 10 9 9 11 12 12 12 12 12 11 11 10 9 9 9 8 8 8 5 4 3 5 7 8 9
4 3 1 2 1 5 4 3 4 4 4 5 8 7 7 6 6 5 4 6 8 7 5 5 7 8 4 2 2 5 4 6 8 8 7 7 8 10 11 11 10 10 9 8 8 7 7 8 10 13 13 11 12 17 18 15 13 12 11 11 12 11 11 12 13 13 13 12 11 11 10 9 9 8 8 7 7 7 5 3 2 2 5 7 9 9
4 5 3 2 2 4 6 4 3 3 3 6 6 5 6 6 7 7 7 8 9 6 5 6 6 5 2 4 6 7 6 6 6 6 6 6 8 9 9 10 10 9 8 8 8 7 8 11 13 14 14 12 11 16 18 15 13 13 13 14 14 13 12 12 13 14 12 11 10 9 8 7 7 7 6 6 5 4 3 4 6 6 7 8 9 10
5 4 3 2 2 2 3 4 3 4 6 7 6 4 6 6 7 8 8 9 8 8 8 9 10 9 6 7 8 6 5 5 5 5 6 6 8 9 9 9 9 8 8 8 8 8 10 14 14 14 14 12 11 14 18 16 14 14 15 15 16 14 13 12 13 14 13 11 9 8 7 6 6 6 6 4 4 3 4 5 6 7 8 8 9 10
6 5 3 2 2 1 1 2 2 6 8 8 7 2 3 2 3 2 7 9 8 10 10 10 13 11 8 7 6 4 5 4 3 4 6 7 8 9 9 10 10 9 9 10 11 13 16 19 19 17 16 13 12 16 20 18 16 15 16 17 16 15 14 13 13 13 13 11 9 8 7 6 6 6 5 5 6 7 8 8 7 7 7 8 10 11
7 5 2 2 2 2 1 2 2 5 8 8 4 0 3 2 4 4 3 7 7 7 8 8 11 9 6 5 4 4 2 2 4 5 6 8 9 9 9 9 10 11 12 15 18 20 22 23 23 20 17 14 15 19 20 17 16 16 17 17 17 15 15 14 13 13 13 11 10 8 7 6 6 6 7 8 10 10 10 9 7 7 8 9 10 11
5 4 5 4 2 3 3 2 3 3 5 6 5 5 4 3 6 6 1 5 7 6 8 8 8 7 5 4 4 4 2 4 3 7 5 6 8 9 8 8 10 13 15 17 18 18 19 20 21 20 17 16 17 18 17 15 16 18 18 17 17 16 15 13 12 12 12 11 10 8 7 6 6 8 11 12 12 12 10 9 8 8 9 9 10 11
4 2 5 5 1 2 4 2 2 3 5 7 8 8 5 4 5 4 4 5 8 6 6 7 8 7 6 6 6 5 4 2 5 7 4 6 8 8 8 7 9 13 15 16 16 16 16 17 17 18 18 18 18 17 16 16 17 18 18 17 16 15 14 13 11 11 11 11 10 9 7 7 7 10 13 13 13 12 10 8 8 8 9 9 10 12
4 3 4 4 3 3 4 2 3 4 6 8 9 7 3 3 4 7 3 6 8 6 4 7 7 6 6 7 5 5 5 5 6 6 4 6 6 8 10 10 11 13 14 14 15 16 17 18 19 20 21 20 20 19 19 19 19 20 19 17 16 15 14 12 10 9 10 11 10 9 8 8 9 11 13 12 11 10 8 7 7 8 8 8 10 14
2 2 2 3 3 4 4 3 3 4 6 8 8 5 5 4 5 4 4 7 6 5 4 6 6 4 7 8 5 5 6 6 3 2 1 5 5 7 10 12 13 15 14 15 17 17 18 19 22 24 24 22 21 21 22 21 21 20 18 17 17 15 12 10 9 9 11 11 10 9 8 8 10 11 11 10 10 9 8 8 9 9 9 8 10 16
2 1 1 3 3 3 3 3 3 5 6 6 3 2 5 4 1 4 7 4 4 5 4 5 6 5 7 8 7 7 6 3 1 1 0 3 4 5 6 9 12 13 12 14 16 18 19 20 22 24 24 23 23 23 23 22 21 19 18 18 17 15 12 10 10 10 12 11 10 9 9 9 10 10 9 8 9 9 8 9 11 11 10 10 13 19
5 4 2 3 3 2 2 2 1 5 6 5 5 4 2 4 5 6 4 3 4 5 4 4 5 5 6 7 8 8 5 3 3 3 2 3 4 5 7 9 12 13 15 16 18 21 23 22 23 24 24 24 24 24 22 22 21 19 19 19 17 13 12 11 11 11 12 12 10 10 9 9 10 10 8 7 8 9 8 9 11 11 11 12 16 21
4 4 3 3 3 4 3 3 5 5 6 6 6 4 6 8 6 4 3 3 4 4 4 4 5 6 8 7 7 7 6 5 5 4 4 5 5 5 7 8 11 14 16 19 21 23 24 23 23 23 23 24 25 24 23 23 22 21 21 19 15 13 13 12 12 13 13 12 11 10 9 9 10 10 8 6 8 9 9 9 10 12 12 14 17 21
5 5 5 4 3 4 5 7 6 4 4 5 5 5 7 7 3 4 4 3 3 4 4 4 5 6 8 7 6 5 5 6 6 5 5 5 5 6 7 9 12 15 17 20 22 25 26 25 24 23 22 23 24 24 25 25 23 22 21 17 14 14 14 13 13 14 13 12 11 10 10 10 10 10 8 5 6 9 10 9 10 12 13 14 16 19
4 3 4 2 2 3 4 6 5 4 4 5 6 6 6 6 4 4 5 5 5 5 5 5 6 6 7 7 6 5 6 6 6 6 5 5 5 6 7 8 11 14 17 19 22 25 24 23 23 23 22 22 22 24 25 26 23 20 18 16 15 16 15 13 14 14 12 11 10 9 9 10 11 10 8 5 4 7 9 9 9 12 14 14 15 16
2 3 3 1 1 1 3 5 5 5 6 6 6 6 6 7 6 5 6 6 6 5 5 6 5 5 6 7 7 7 7 5 6 5 5 5 5 6 7 8 11 15 18 21 24 25 23 20 21 21 21 22 22 24 25 25 23 20 17 16 16 16 15 15 15 13 12 11 10 9 9 11 12 11 8 5 3 4 7 8 8 10 13 13 13 14
1 3 3 2 3 3 5 7 6 6 8 7 5 5 6 6 6 6 6 7 6 5 6 6 5 5 5 6 8 7 6 5 7 7 5 5 6 6 7 10 14 16 17 19 23 25 23 22 22 22 22 22 23 24 25 25 23 20 17 16 16 16 16 16 16 14 11 11 10 10 10 11 12 11 8 5 3 4 6 6 6 7 10 12 12 11
3 3 3 3 2 2 6 7 5 5 6 6 3 4 6 5 6 6 6 7 7 6 6 5 5 6 7 7 7 7 6 6 7 7 7 6 6 6 9 12 15 16 17 18 21 24 24 24 23 23 23 23 23 24 25 24 22 21 19 16 16 17 17 18 17 15 13 12 11 11 11 11 11 10 7 5 5 5 5 5 5 6 7 7 7 7
3 3 3 3 1 3 5 5 2 1 3 5 5 5 6 5 5 6 6 6 8 8 7 7 6 6 6 7 7 7 7 7 7 7 7 7 7 10 13 14 14 14 16 17 19 22 23 23 24 24 23 23 23 22 22 21 22 22 20 17 17 18 18 19 19 17 14 14 13 12 12 12 11 9 8 7 7 6 5 5 5 6 7 8 7 6
4 5 5 5 4 5 7 7 4 3 3 6 7 6 6 3 4 6 7 7 8 8 7 7 7 6 6 7 8 10 8 7 7 9 7 7 10 13 15 17 17 17 18 18 19 20 21 21 22 24 24 23 22 20 20 20 21 22 22 19 18 19 19 19 20 18 16 15 15 13 13 13 11 9 9 9 8 8 7 6 6 5 5 6 7 8
Wind_Direction
71 63 40 191 247 267 230 210 197 183 167 140 133 156 208 221 280 275 266 277 194 113 44 113 126 130 126 77 59 63 46 56 30 355 158 139 124 131 126 125 124 115 102 70 73 77 84 95 114 143 139 123 130 159 195 211 225 231 229 225 218 213 211 210 208 207 207 207 206 205 208 212 215 220 228 226 219 219 221 216 214 217 222 228 235 236
63 62 332 262 244 241 228 216 168 128 112 93 130 155 268 217 261 316 313 306 276 97 44 95 106 90 74 60 43 61 67 53 18 330 294 335 125 137 137 138 136 127 96 71 75 74 77 75 67 72 85 104 111 79 50 297 269 260 252 245 238 231 226 221 215 213 213 215 215 214 215 218 222 228 231 230 228 226 225 221 217 218 221 225 233 237
38 27 313 297 248 170 65 87 99 89 92 72 88 119 352 271 272 324 342 355 14 88 99 117 108 75 25 49 49 54 77 1 347 18 342 332 4 149 149 149 146 139 104 56 45 58 69 60 48 40 41 69 96 84 59 38 13 334 294 271 257 244 237 234 229 226 224 224 224 226 227 227 229 232 232 231 232 230 228 227 224 223 224 226 229 233
41 314 306 325 79 100 57 37 69 66 64 63 60 89 1 310 40 8 342 8 33 79 125 120 96 59 4 32 43 28 70 84 6 30 35 20 335 200 170 162 152 145 123 75 20 27 53 55 47 36 31 48 65 75 65 42 19 359 343 325 303 276 256 244 239 237 235 233 233 233 236 236 234 234 233 232 232 230 229 230 231 231 229 229 229 230
151 271 305 35 50 77 74 38 55 77 36 2 69 100 350 316 45 94 339 51 53 54 111 108 72 6 351 21 321 334 19 92 29 21 1 18 55 28 169 174 46 108 128 115 93 25 41 48 44 35 31 38 51 63 56 29 0 344 344 344 330 302 286 269 252 243 238 235 236 238 239 240 240 238 234 231 230 230 231 231 234 239 238 235 233 230
138 291 4 64 40 50 79 50 42 111 67 344 300 172 244 227 116 117 110 73 63 38 217 99 83 282 318 321 244 305 350 213 350 334 244 274 54 120 194 270 20 16 303 245 174 90 50 48 45 41 33 30 37 39 34 26 359 332 328 335 336 321 305 292 277 260 244 234 234 237 237 236 236 236 233 231 230 229 230 229 228 237 245 243 238 232
6 348 46 82 65 50 57 53 222 127 91 30 272 217 193 113 101 117 114 91 99 180 250 76 117 206 304 279 237 271 313 269 293 276 242 245 212 187 218 230 171 215 272 270 247 176 63 55 38 27 22 19 19 21 20 17 6 348 340 333 327 321 313 305 293 275 256 242 238 238 238 238 235 235 237 236 236 233 232 230 225 229 239 242 238 233
265 358 33 59 64 62 50 39 211 125 104 229 266 155 131 96 85 71 91 96 138 164 64 36 94 130 245 249 226 179 222 271 273 257 248 234 215 205 212 223 211 217 234 242 229 199 90 50 23 358 4 16 18 17 10 8 8 357 344 341 339 322 305 300 295 281 266 253 249 245 242 241 240 241 242 241 238 233 231 232 230 229 233 234 232 230
239 0 22 62 59 69 137 228 206 128 105 246 228 120 102 109 109 87 73 61 26 105 195 318 48 105 249 266 251 145 196 247 243 234 233 220 212 201 204 220 219 223 235 236 219 174 97 38 29 0 15 27 23 16 7 5 1 347 334 334 344 336 315 296 280 267 261 255 251 249 244 241 242 245 246 244 239 232 227 230 233 234 234 232 228 226
236 231 192 117 102 195 230 241 195 141 119 230 151 90 51 60 74 72 88 79 22 73 223 270 66 113 270 275 210 156 207 229 228 226 221 213 208 193 193 209 209 220 232 237 232 201 249 343 52 38 40 36 27 18 11 8 360 349 339 332 335 334 325 317 297 267 254 253 249 246 245 243 243 245 246 243 239 230 224 225 230 233 236 235 231 226
320 304 176 127 164 201 217 249 192 171 232 146 98 56 35 31 36 39 64 93 74 291 242 242 131 139 266 266 201 195 214 215 210 210 210 206 203 193 194 201 201 207 218 237 263 283 279 281 65 51 42 32 27 20 15 14 3 355 351 343 341 337 321 307 305 293 272 266 260 253 250 248 246 244 241 238 235 228 220 221 225 226 232 236 233 228
345 8 220 252 232 163 99 10 350 351 7 101 87 63 52 353 13 26 359 55 128 242 259 255 125 137 228 259 220 219 241 218 198 200 200 195 193 189 192 200 202 207 216 239 279 288 284 300 50 38 32 27 23 15 12 17 8 1 0 354 349 347 334 307 292 283 273 265 262 260 255 253 252 246 241 237 234 231 224 223 224 223 226 233 232 228
359 339 300 321 302 113 86 41 336 353 24 81 90 80 86 332 9 21 302 329 197 242 265 294 102 164 233 247 223 221 232 223 206 204 190 181 183 185 191 199 203 210 216 231 251 264 276 289 332 359 16 20 22 17 9 14 16 8 3 357 354 355 349 337 316 279 267 260 255 256 252 251 252 246 241 239 237 236 231 226 225 224 224 229 232 228
343 313 331 3 341 327 108 115 255 316 24 90 132 126 123 115 81 267 261 303 263 249 277 321 267 258 271 274 226 226 233 219 201 199 173 172 181 183 188 194 201 215 219 225 234 248 266 267 279 312 345 2 14 19 12 14 21 19 10 359 357 2 3 3 1 338 304 286 267 262 260 257 256 250 246 244 243 241 238 232 227 226 226 226 228 230
78 312 312 336 307 336 76 152 169 154 93 112 162 136 136 155 149 206 220 189 239 254 304 312 266 200 227 262 243 244 261 225 177 188 168 167 180 175 177 189 200 221 226 228 239 252 257 253 263 293 318 333 353 11 12 9 14 17 19 13 11 17 21 22 24 21 8 340 298 279 274 270 267 263 258 253 248 244 241 237 231 229 229 227 226 228
99 245 261 273 267 36 13 221 151 107 81 238 179 103 116 185 143 126 184 172 168 236 298 277 241 215 212 266 285 287 334 28 149 180 163 161 173 165 174 193 201 218 228 232 244 256 253 249 258 285 301 306 326 1 11 7 5 9 21 27 27 32 33 31 28 21 11 357 330 299 278 272 270 264 256 251 248 244 239 235 232 230 229 228 226 226
73 267 276 312 314 97 351 264 125 99 157 227 127 148 219 170 119 112 185 90 88 161 266 255 258 296 318 305 322 37 39 22 119 180 179 170 168 167 183 198 202 213 225 232 237 247 251 254 265 280 292 297 313 351 7 9 1 1 21 34 36 44 45 37 30 24 19 11 356 336 309 287 278 269 260 254 251 251 246 238 234 228 223 223 225 225
126 277 290 346 40 272 284 24 38 50 128 110 168 213 205 119 95 105 143 8 43 218 273 281 240 284 321 288 322 13 347 282 228 197 188 171 170 181 195 199 203 210 223 241 248 255 259 266 279 284 286 290 302 332 359 7 354 346 9 29 34 43 56 49 39 38 35 25 13 355 333 303 283 275 271 266 259 257 254 247 239 227 217 216 220 224
113 338 298 293 205 296 338 55 12 345 11 99 173 183 117 118 126 72 126 134 65 238 282 301 276 260 212 228 284 262 227 230 220 200 188 186 187 193 197 199 207 215 230 246 253 261 265 272 286 294 290 282 289 308 322 342 341 330 326 7 26 32 54 66 48 44 43 30 16 355 325 297 278 269 267 267 262 254 250 247 239 229 220 215 215 217
98 103 285 284 245 300 359 44 255 311 355 31 59 34 32 129 157 161 141 160 180 216 261 304 317 270 230 220 206 217 220 206 193 195 198 199 195 193 193 194 201 208 216 229 236 248 266 278 291 303 293 273 277 289 268 269 316 325 320 354 18 18 32 75 65 52 44 29 14 4 353 335 315 293 273 266 262 255 248 243 239 232 226 220 216 214
66 103 237 293 315 325 331 290 199 183 134 48 50 8 348 77 120 173 107 115 145 169 190 262 297 265 249 217 202 224 228 200 190 196 201 202 196 195 194 189 194 201 209 220 226 238 262 282 304 317 301 273 277 279 246 238 274 306 358 18 13 7 17 54 75 61 34 20 16 17 19 14 5 354 317 276 261 253 246 240 237 231 224 222 220 218
128 132 184 288 335 304 252 248 198 173 169 151 156 190 178 132 123 144 298 314 123 156 175 174 264 268 256 212 219 241 235 209 204 199 198 202 197 197 200 196 196 196 201 214 221 231 254 286 319 323 302 264 264 233 205 211 233 255 11 24 14 2 11 39 65 65 39 17 19 28 35 39 39 36 12 321 278 257 248 241 237 232 225 223 221 218
146 115 126 259 256 237 253 272 183 174 155 126 135 167 148 132 120 137 207 255 220 188 158 133 253 271 261 227 237 249 237 224 216 201 200 205 198 199 204 203 203 201 206 213 215 227 250 291 319 303 213 177 187 191 190 195 199 224 14 22 10 351 358 61 67 68 59 16 11 36 48 53 58 63 57 43 24 325 265 247 240 234 228 223 220 217
121 91 95 288 297 296 307 342 24 45 84 105 133 124 137 150 141 153 176 178 174 207 150 121 266 269 274 274 261 258 246 227 219 206 200 202 202 204 203 204 205 206 213 216 214 238 268 296 328 183 175 174 180 190 193 190 182 83 26 17 0 341 312 147 106 82 75 37 24 50 59 60 65 69 67 65 57 49 61 176 211 218 218 216 212 211
232 111 97 33 345 340 342 354 352 344 8 182 253 249 161 125 105 119 131 111 197 223 167 169 248 253 269 301 325 334 325 244 227 213 199 196 200 204 202 204 205 203 211 214 216 255 278 228 120 132 177 183 188 201 203 188 168 92 53 32 8 351 133 140 124 105 98 92 71 71 72 72 72 71 70 70 68 65 72 92 128 164 185 197 196 193
177 173 123 118 174 255 266 282 273 277 273 238 248 226 194 141 129 145 124 114 223 238 168 182 242 260 282 308 327 326 300 265 250 221 207 206 200 199 198 199 201 201 207 206 205 235 259 241 172 158 184 190 196 204 196 174 150 107 79 61 43 43 100 112 126 124 117 118 98 84 83 84 83 81 78 76 75 75 79 87 103 122 141 163 176 182
101 158 159 152 181 199 199 223 221 174 159 242 243 232 205 172 144 122 109 159 197 190 191 222 235 269 288 290 292 279 240 240 247 217 208 213 204 203 202 198 199 202 209 208 204 222 243 246 229 196 158 174 192 193 180 165 155 133 106 76 70 112 119 99 116 125 120 127 116 95 90 92 93 92 88 84 83 84 87 92 99 107 114 128 146 160
99 273 231 168 202 214 204 223 218 160 193 221 228 241 214 182 152 139 180 208 162 131 257 249 213 239 269 264 261 263 240 228 235 220 212 210 198 195 195 194 202 210 217 216 211 215 218 230 234 212 156 151 173 178 173 166 162 142 118 92 102 141 140 121 116 115 120 130 119 99 93 96 97 96 93 91 92 93 93 90 87 91 99 109 119 129
119 247 228 176 238 248 224 231 205 179 227 220 212 230 217 180 173 188 215 207 156 178 249 243 190 218 255 258 252 251 233 226 231 219 204 190 173 173 180 191 202 209 212 213 215 213 209 216 220 201 175 162 173 178 178 176 171 145 117 106 134 142 132 126 123 112 118 125 116 105 102 101 99 97 97 95 93 93 95 92 86 86 91 96 100 106
131 238 221 181 285 286 266 256 210 195 244 253 234 233 215 190 195 210 226 209 187 223 251 249 238 253 259 252 250 253 237 225 225 189 171 175 174 177 185 194 202 205 206 208 212 210 205 211 207 187 174 184 185 181 180 183 179 151 122 121 139 141 130 125 124 121 120 122 121 120 117 110 104 99 95 93 90 90 90 90 90 91 90 93 97 101
153 239 200 105 339 295 297 326 216 190 214 245 261 256 228 211 217 227 236 209 197 242 256 259 273 275 267 238 242 261 245 196 193 190 193 194 184 181 188 196 201 205 208 208 207 206 207 209 203 191 188 194 189 182 182 188 181 159 147 148 144 139 133 129 128 127 126 127 131 132 128 120 112 103 93 87 84 83 80 74 74 83 88 94 106 113
146 227 7 74 26 282 304 0 348 335 270 259 272 265 237 215 212 222 219 192 191 220 244 249 252 263 261 213 234 267 229 196 217 215 208 204 188 182 191 197 199 204 207 205 200 199 202 202 199 200 200 197 191 186 188 192 185 170 164 161 153 146 140 137 134 133 132 133 135 134 129 122 114 104 95 86 77 73 71 57 32 55 95 118 131 136
143 148 140 113 179 271 294 340 336 357 2 290 262 236 211 205 218 241 255 224 205 195 201 218 230 244 242 161 226 262 224 216 236 226 208 206 196 191 196 195 196 204 203 198 198 196 197 205 207 203 199 197 196 194 194 195 192 184 176 167 161 155 147 141 139 138 137 138 137 133 126 119 110 101 93 84 77 75 80 99 136 154 152 149 148 146
147 141 162 171 177 262 286 327 342 335 305 260 239 188 176 197 209 220 241 234 211 191 203 238 253 255 224 188 216 231 219 220 240 233 215 202 192 196 203 199 197 202 198 195 199 197 199 209 214 210 199 195 202 203 199 199 196 190 182 173 167 160 151 145 145 145 144 144 141 133 126 118 106 97 87 77 72 72 101 139 154 157 156 154 151 145
152 144 156 156 145 241 299 10 351 270 241 243 257 228 203 211 199 209 249 252 220 212 233 256 263 254 230 218 223 231 238 245 255 241 217 197 190 192 198 202 200 195 193 197 201 202 205 209 214 215 204 198 209 209 201 199 196 188 181 175 170 165 158 154 153 152 151 150 147 140 131 121 108 99 90 83 85 104 130 138 140 142 146 148 144 138
154 150 145 145 156 220 1 70 197 251 262 277 296 287 184 181 156 201 284 279 233 209 214 237 253 251 237 234 240 244 251 260 280 256 213 195 193 191 193 200 197 191 192 196 198 200 204 207 212 216 209 203 210 208 200 197 194 186 179 176 173 170 167 164 161 159 157 155 152 148 138 123 114 108 106 113 127 134 135 135 135 139 147 146 137 128
147 145 150 187 196 162 154 212 245 303 307 304 315 133 163 171 164 166 266 280 247 202 187 217 250 250 230 228 228 219 231 10 349 297 234 197 193 195 198 201 195 195 199 200 203 206 207 209 214 216 211 204 206 205 199 196 194 187 180 174 172 172 171 170 169 166 164 162 157 152 141 128 120 118 120 125 131 137 139 138 138 139 142 143 134 123
140 157 173 195 217 112 113 278 314 337 296 273 263 259 247 209 186 164 143 294 273 228 191 208 245 240 196 178 187 182 94 47 321 282 247 200 197 195 198 201 196 200 205 205 207 210 210 210 212 210 206 202 202 199 196 197 196 188 180 175 173 173 173 174 176 175 172 168 161 154 142 132 126 125 127 124 125 130 133 131 131 132 132 133 131 126
89 68 133 149 162 105 124 188 221 219 248 249 252 270 275 216 184 111 39 311 276 249 194 198 242 240 174 159 175 153 101 106 252 266 238 193 200 194 188 194 196 201 209 211 210 210 211 210 206 201 199 196 193 191 193 197 195 186 180 176 175 176 178 181 184 184 182 173 162 154 144 133 128 129 131 128 125 125 122 118 124 128 125 123 125 130
78 50 107 150 187 160 150 186 223 234 251 248 247 254 230 180 111 72 25 277 263 260 195 184 234 242 160 152 162 149 154 197 232 255 220 182 188 192 189 190 192 194 198 204 211 215 214 208 197 190 189 188 185 188 193 194 190 185 182 179 179 184 186 187 188 190 187 176 162 154 146 137 130 129 130 131 128 123 113 109 121 128 124 121 129 138
100 73 120 173 190 168 171 220 267 265 249 245 251 232 174 129 69 86 212 235 242 257 220 189 219 213 149 154 168 183 209 215 217 280 199 152 162 192 197 193 190 190 193 199 206 207 201 197 191 185 184 184 184 188 190 188 187 186 183 181 187 194 194 191 191 190 185 176 163 155 149 143 137 132 129 129 128 122 112 107 116 127 127 125 136 144
147 135 127 160 169 164 175 207 284 291 258 224 216 169 151 144 159 213 224 224 212 237 235 206 211 188 158 171 191 209 235 241 197 339 129 158 172 178 182 178 173 178 187 192 195 190 183 182 183 181 181 182 183 186 187 187 189 187 185 190 199 202 197 193 193 189 184 177 167 158 153 150 149 146 140 136 132 127 119 112 114 122 129 131 138 141
168 172 192 188 174 140 106 116 238 280 259 183 124 85 138 195 206 214 229 235 218 227 224 208 212 193 176 193 212 226 255 286 264 239 211 218 212 174 171 177 170 169 172 173 178 179 174 173 176 179 180 181 185 187 188 190 191 188 192 202 207 202 196 194 192 188 185 180 173 166 160 157 160 162 159 152 146 142 134 126 121 124 131 136 137 138
187 177 190 214 186 139 136 190 212 230 229 189 154 154 205 218 203 171 181 214 224 222 202 207 226 206 187 198 216 223 241 265 257 229 201 215 215 182 180 187 178 172 170 170 173 174 171 172 175 178 180 183 187 190 193 194 193 191 199 209 208 197 195 195 192 190 187 184 182 179 175 166 163 169 173 163 158 160 155 145 138 135 137 141 140 139
219 193 171 190 199 170 184 213 222 224 224 221 215 209 224 243 230 158 182 229 230 206 186 191 223 213 197 200 204 202 217 232 231 221 210 208 201 186 185 188 184 179 172 169 172 174 176 178 178 177 181 186 191 195 198 197 196 196 203 209 205 198 198 195 192 191 190 190 189 188 190 181 168 171 181 172 163 169 169 161 154 150 148 149 148 146
235 180 143 164 236 247 243 238 239 254 257 247 249 245 245 262 259 187 207 248 242 210 196 197 207 204 193 188 189 206 223 215 208 221 225 207 192 185 182 184 185 179 169 167 172 177 180 181 179 180 184 189 195 200 200 200 201 203 206 206 202 200 199 193 190 190 193 197 195 195 198 189 177 178 188 184 169 173 174 170 163 158 156 155 154 154
277 166 155 185 194 198 259 256 236 239 248 244 251 263 260 253 242 210 211 241 242 215 212 218 209 190 179 179 193 218 226 197 185 209 217 193 188 187 177 177 181 179 175 173 176 179 179 179 180 184 188 193 199 203 203 203 206 209 209 205 201 200 198 193 191 193 198 200 201 202 199 187 181 186 194 197 195 176 173 175 169 162 163 162 158 158
193 153 167 190 164 174 243 261 254 252 258 249 239 255 267 265 258 239 228 241 250 235 222 219 193 169 177 192 201 210 211 189 186 195 196 193 195 188 180 184 187 186 184 180 178 180 181 182 185 188 192 197 201 204 205 206 208 209 209 205 200 199 198 196 195 197 199 199 199 200 195 186 186 191 195 200 205 180 170 174 167 157 162 168 167 165
145 154 174 172 182 275 281 284 308 319 301 296 281 254 254 263 271 264 247 241 247 242 227 216 203 190 191 197 194 189 194 202 198 188 185 192 194 188 189 192 191 190 188 185 185 187 187 188 190 191 195 200 201 202 205 207 208 209 210 206 201 199 198 199 200 200 199 198 198 196 192 191 195 198 196 194 195 188 174 162 143 122 128 148 164 167
151 188 181 137 158 282 263 250 270 357 284 288 295 280 264 258 268 278 272 250 242 235 216 210 219 224 218 207 189 180 195 210 201 185 184 193 194 193 192 190 190 195 195 192 192 192 193 194 195 194 198 201 200 200 204 207 209 211 212 208 203 200 200 201 201 201 199 200 198 194 193 198 202 202 199 196 197 200 189 165 145 124 112 114 122 126
181 189 174 158 193 236 239 229 202 159 223 257 263 271 278 265 246 267 271 257 250 242 215 202 208 219 230 222 198 190 201 207 187 179 187 202 202 197 192 189 190 193 196 195 193 193 195 197 196 196 198 199 197 199 205 207 208 210 212 211 207 204 204 203 201 200 201 201 198 194 196 201 203 201 198 197 202 209 201 180 167 157 139 124 118 118